Torna al catalogo

FENGYUN 1C DEB

AttivoSSO
NORAD 36278·DEBRIS·🇨🇳 China

Lanciato May 10, 1999 da Taiyuan Satellite Launch Center

Loading…

Prossimi Passaggi (prossime 24 ore)

TLE

In scadenzaSource: Space-Track

Epoca: Sep 6, 2026, 12:31 UTC

1 36278U 99025DXF 26249.52184417  .00000278  00000-0  15677-3 0  9992
2 36278  99.1280 180.0746 0059720 251.6539 107.8133 14.17766459972705

Traccia FENGYUN 1C DEB in tempo reale con AllMySat

Download on the App Store